Change the Weather History Date:

Tuesday, March 19, 2013

  Actual Average Record
Temperature  
Mean Temperature 34 °F -  
Max Temperature 42 °F 50 °F 79 °F (2012)
Min Temperature 30 °F 27 °F 10 °F (1939)
Degree Days  
Heating Degree Days 30    
Moisture  
Dew Point 23 °F    
Average Humidity 59    
Maximum Humidity 79    
Minimum Humidity 38    
Precipitation  
Precipitation 0.00 in - - ()
Sea Level Pressure  
Sea Level Pressure 29.92 in    
Wind  
Wind Speed 14 mph (West)    
Max Wind Speed 24 mph    
Max Gust Speed 43 mph    
Visibility 10 miles    
Events      
Averages and records for this station are not official NWS values.
T = Trace of Precipitation, MM = Missing Value Source: NWS Daily Summary

Daily Weather History Graph

Daily Weather History Graph

Search for Another Location

Airport or City:

Trip Planner

Search our weather history database for the weather conditions in past years. The results will help you decide how hot, cold, wet, or windy it might be!

Date:

Astronomy

Mar. 19, 2013 Rise Set
Actual Time 7:35 AM EDT 7:41 PM EDT
Civil Twilight 7:08 AM EDT 8:08 PM EDT
Nautical Twilight 6:36 AM EDT 8:40 PM EDT
Astronomical Twilight 6:05 AM EDT 9:12 PM EDT
Moon 12:25 PM EDT (3/19) 2:27 AM EDT (3/19)
Length of Visible Light 13h 00m
Length of Day
12h 06m
Waxing Crescent, 49% of the Moon is Illuminated
Mar 19
Waxing Crescent
Mar 19
First Quarter
Mar 27
Full
Apr 3
Last Quarter
Apr 10
New

Hourly Weather History & Observations

Time (EDT) Temp. Windchill Dew Point Humidity Pressure Visibility Wind Dir Wind Speed Gust Speed Precip Events Conditions
12:53 AM 39.9 °F 32.9 °F 34.0 °F 79% 29.81 in 10.0 mi WNW 11.5 mph 17.3 mph N/A   Overcast
1:29 AM 39.2 °F 32.0 °F 30.2 °F 70% 29.80 in 10.0 mi West 11.5 mph 26.5 mph N/A   Overcast
1:53 AM 39.0 °F 30.6 °F 30.0 °F 70% 29.81 in 10.0 mi West 15.0 mph 21.9 mph N/A   Overcast
2:53 AM 39.0 °F 31.8 °F 30.0 °F 70% 29.83 in 10.0 mi West 11.5 mph - N/A   Overcast
3:53 AM 37.9 °F 30.5 °F 30.0 °F 73% 29.83 in 10.0 mi WSW 11.5 mph 18.4 mph N/A   Overcast
4:53 AM 37.0 °F 28.5 °F 30.0 °F 76% 29.83 in 10.0 mi WSW 13.8 mph 20.7 mph N/A   Overcast
5:53 AM 37.9 °F 29.6 °F 30.0 °F 73% 29.84 in 10.0 mi WSW 13.8 mph 20.7 mph N/A   Mostly Cloudy
6:23 AM 37.4 °F 27.5 °F 30.2 °F 75% 29.84 in 10.0 mi WSW 18.4 mph 25.3 mph N/A   Overcast
6:53 AM 37.0 °F 29.8 °F 30.0 °F 76% 29.86 in 10.0 mi West 10.4 mph 19.6 mph N/A   Overcast
7:53 AM 34.0 °F 25.5 °F 26.1 °F 73% 29.88 in 10.0 mi West 11.5 mph - N/A   Overcast
8:21 AM 33.8 °F 23.9 °F 24.8 °F 70% 29.87 in 10.0 mi West 15.0 mph 24.2 mph N/A   Mostly Cloudy
8:53 AM 32.0 °F 20.5 °F 23.0 °F 69% 29.89 in 10.0 mi West 18.4 mph 28.8 mph N/A   Clear
9:53 AM 30.9 °F 18.1 °F 19.0 °F 61% 29.91 in 10.0 mi West 21.9 mph 28.8 mph N/A   Scattered Clouds
10:53 AM 30.9 °F 17.5 °F 19.0 °F 61% 29.92 in 10.0 mi West 24.2 mph 29.9 mph N/A   Scattered Clouds
11:53 AM 34.0 °F 21.8 °F 19.9 °F 56% 29.95 in 10.0 mi West 23.0 mph 36.8 mph N/A   Scattered Clouds
12:53 PM 36.0 °F 25.3 °F 21.0 °F 55% 29.95 in 10.0 mi West 19.6 mph 32.2 mph N/A   Overcast
1:53 PM 37.9 °F 27.9 °F 19.9 °F 48% 29.95 in 10.0 mi West 19.6 mph 28.8 mph N/A   Overcast
2:53 PM 37.9 °F 27.3 °F 18.0 °F 45% 29.96 in 10.0 mi West 21.9 mph 34.5 mph N/A   Overcast
3:53 PM 39.9 °F 29.7 °F 19.0 °F 43% 29.96 in 10.0 mi West 23.0 mph 42.6 mph N/A   Overcast
4:53 PM 39.9 °F 29.5 °F 18.0 °F 41% 29.98 in 10.0 mi West 24.2 mph 40.3 mph N/A   Mostly Cloudy
5:53 PM 39.9 °F 30.2 °F 16.0 °F 38% 30.00 in 10.0 mi West 20.7 mph 36.8 mph N/A   Partly Cloudy
6:53 PM 39.0 °F 30.6 °F 17.1 °F 41% 30.01 in 10.0 mi West 15.0 mph 25.3 mph N/A   Clear
7:53 PM 37.0 °F 28.9 °F 14.0 °F 39% 30.03 in 10.0 mi WNW 12.7 mph 25.3 mph N/A   Clear
8:53 PM 35.1 °F 28.6 °F 16.0 °F 46% 30.05 in 10.0 mi West 8.1 mph - N/A   Clear
9:53 PM 33.1 °F 26.9 °F 16.0 °F 50% 30.07 in 10.0 mi West 6.9 mph - N/A   Clear
10:53 PM 32.0 °F 25.6 °F 17.1 °F 54% 30.07 in 10.0 mi West 6.9 mph - N/A   Clear
11:53 PM 32.0 °F 25.6 °F 17.1 °F 54% 30.07 in 10.0 mi West 6.9 mph - N/A   Clear